Weather reports worldwide

Advertisment
Le Talut, France (7207): temperature & dewpoint: 10.08.2018 13:00:00 - 16.08.2018 13:00:00 (CEST)Le Talut, France (7207): wind speed & gusts: 10.08.2018 13:00:00 - 16.08.2018 13:00:00 (CEST)Le Talut, France (7207): wind direction: 10.08.2018 13:00:00 - 16.08.2018 13:00:00 (CEST)Le Talut, France (7207): reduced air pressure: 10.08.2018 13:00:00 - 16.08.2018 13:00:00 (CEST)Le Talut, France (7207): visibility: 10.08.2018 13:00:00 - 16.08.2018 13:00:00 (CEST)Le Talut, France (7207): precipitation: 10.08.2018 13:00:00 - 16.08.2018 13:00:00 (CEST)
Date & Time tt [°C] td [°C] ff [km/h] ff [kn] fx [km/h] fx [kn] dd ppp [hPa] vv [km] rr [mm]
16.08.2018 13:00:00 20,3 16,3 14 7 20 11 W 1017,5 - 0,0
16.08.2018 12:00:00 20,0 15,8 5 3 11 6 W 1017,6 - 0,0
16.08.2018 11:00:00 19,2 15,5 8 4 13 7 W 1017,7 20 0,0
16.08.2018 10:00:00 18,3 15,4 6 3 11 6 WNW 1017,8 - 0,0
16.08.2018 09:00:00 18,0 15,6 5 3 13 7 NW 1017,8 - 0,0
16.08.2018 08:00:00 16,4 15,1 10 6 15 8 NNW 1017,9 20 0,0
16.08.2018 07:00:00 16,3 15,3 10 5 18 10 N 1017,9 - 0,0
16.08.2018 06:00:00 15,4 14,3 13 7 19 10 N 1017,7 - 0,0
16.08.2018 05:00:00 15,9 14,8 14 8 23 12 NNW 1018,2 - 0,0
16.08.2018 04:00:00 15,7 14,6 14 8 21 11 NNW 1018,4 - 0,0
16.08.2018 03:00:00 15,9 14,6 13 7 19 10 N 1018,9 - 0,0
16.08.2018 02:00:00 16,1 14,8 13 7 20 11 N 1019,3 - 0,0
16.08.2018 01:00:00 16,4 14,9 13 7 19 10 N 1019,6 - 0,0
16.08.2018 00:00:00 16,8 15,1 13 7 18 10 NNW 1019,8 - 0,0
15.08.2018 23:00:00 17,2 15,5 14 8 21 11 NW 1020,3 - 0,0
15.08.2018 22:00:00 17,5 15,5 14 8 21 11 NNW 1020,3 - 0,0
15.08.2018 21:00:00 18,6 15,5 11 6 23 13 NW 1020,2 - 0,0
15.08.2018 20:00:00 19,8 15,9 10 6 21 11 WNW 1020,2 20 0,0
15.08.2018 19:00:00 20,7 15,5 12 7 23 12 W 1020,6 - 0,0
15.08.2018 18:00:00 21,3 15,2 11 6 26 14 NW 1021,1 - 0,0
15.08.2018 17:00:00 22,4 15,3 13 7 24 13 WNW 1021,5 20 0,0
15.08.2018 16:00:00 22,8 16,1 8 4 18 10 NW 1021,9 - 0,0
15.08.2018 15:00:00 21,6 15,2 5 3 11 6 S 1022,5 - 0,0
15.08.2018 14:00:00 20,2 15,6 4 2 12 7 ENE 1022,7 20 0,0
15.08.2018 13:00:00 20,1 15,9 6 3 16 9 S 1023,0 - 0,0
15.08.2018 12:00:00 21,1 14,5 6 4 13 7 NNW 1023,1 - 0,0
15.08.2018 11:00:00 20,3 14,2 8 5 19 10 NNE 1023,3 - 0,0
15.08.2018 10:00:00 19,7 15,1 13 7 20 11 N 1023,2 - 0,0
15.08.2018 09:00:00 18,2 15,3 10 5 17 9 N 1023,1 - 0,0
15.08.2018 08:00:00 15,9 14,3 13 7 21 12 N 1022,8 20 0,0
15.08.2018 07:00:00 15,0 13,5 15 8 20 11 N 1022,8 - 0,0
15.08.2018 06:00:00 15,1 13,6 14 7 22 12 N 1022,6 - 0,0
15.08.2018 05:00:00 15,8 14,3 16 9 23 13 N 1022,7 - 0,0
15.08.2018 04:00:00 16,2 15,1 14 8 24 13 N 1023,0 - 0,0
15.08.2018 03:00:00 17,0 15,9 17 9 31 17 NNW 1023,2 - 0,0
15.08.2018 02:00:00 17,5 16,5 18 10 28 15 NNW 1023,3 - 0,0
15.08.2018 01:00:00 17,7 16,6 16 8 23 13 NNW 1023,3 - 0,0
15.08.2018 00:00:00 17,9 16,8 16 9 26 14 NNW 1023,1 - 0,0
14.08.2018 23:00:00 18,1 16,9 16 8 29 16 NW 1023,2 - 0,0
14.08.2018 22:00:00 18,2 16,9 14 8 29 15 WNW 1022,9 - 0,0
14.08.2018 21:00:00 18,8 16,9 14 8 30 16 WNW 1022,5 - 0,0
14.08.2018 20:00:00 19,9 17,5 13 7 26 14 WNW 1022,2 - 0,0
14.08.2018 19:00:00 20,4 17,6 14 7 27 15 WNW 1022,5 - 0,0
14.08.2018 18:00:00 20,0 17,8 14 7 23 13 WNW 1022,6 - 0,0
14.08.2018 17:00:00 19,7 17,8 11 6 25 13 WNW 1022,9 20 0,0
14.08.2018 16:00:00 20,4 17,8 14 8 22 12 W 1022,8 - 0,0
14.08.2018 15:00:00 19,5 16,9 14 8 21 11 W 1022,9 - 0,0
14.08.2018 14:00:00 21,2 15,7 11 6 18 10 W 1022,6 20 0,0
14.08.2018 13:00:00 20,6 15,4 12 7 19 11 W 1022,3 - 0,0
14.08.2018 12:00:00 19,7 14,5 11 6 22 12 W 1022,2 - 0,0
14.08.2018 11:00:00 18,8 14,1 16 8 25 13 NW 1021,9 - 0,0
14.08.2018 10:00:00 18,3 13,8 11 6 22 12 N 1021,4 - 0,0
14.08.2018 09:00:00 17,7 12,8 16 8 30 16 NNW 1021,1 - 0,0
14.08.2018 08:00:00 17,3 14,9 14 7 21 11 NNW 1020,5 20 0,0
14.08.2018 07:00:00 17,2 14,5 11 6 18 10 NNW 1019,7 - 0,0
14.08.2018 06:00:00 16,9 13,0 11 6 22 12 N 1019,0 - 0,0
14.08.2018 05:00:00 16,9 13,0 15 8 28 15 NW 1018,7 - 0,0
14.08.2018 04:00:00 16,2 14,9 11 6 18 10 NNW 1018,7 - 0,0
14.08.2018 03:00:00 16,4 14,9 12 7 21 12 NNW 1018,4 - 0,0
14.08.2018 02:00:00 16,5 14,7 15 8 29 16 NNW 1018,0 - 0,0
14.08.2018 01:00:00 17,0 15,3 17 9 35 19 NNW 1017,6 - 0,0
14.08.2018 00:00:00 17,6 15,4 21 11 36 19 NW 1017,0 - 0,0
13.08.2018 23:00:00 18,0 15,8 22 12 40 22 NW 1016,5 - 0,0
13.08.2018 22:00:00 18,1 16,1 23 12 37 20 NW 1015,6 - 0,0
13.08.2018 21:00:00 18,4 15,6 17 9 39 21 WNW 1014,9 - 0,0
13.08.2018 20:00:00 19,3 15,8 19 10 47 25 WNW 1014,4 20 0,0
13.08.2018 19:00:00 19,8 15,9 25 14 42 23 W 1014,0 - 0,0
13.08.2018 18:00:00 20,4 16,4 27 14 41 22 W 1013,9 - 0,0
13.08.2018 17:00:00 20,5 16,3 23 12 35 19 W 1013,7 - 0,0
13.08.2018 16:00:00 21,1 16,9 16 9 32 17 W 1013,7 - 0,0
13.08.2018 15:00:00 20,9 16,7 16 9 25 13 W 1013,5 - 0,0
13.08.2018 14:00:00 21,0 16,6 14 8 23 13 W 1013,1 20 0,0
13.08.2018 13:00:00 20,4 17,0 13 7 23 12 W 1013,0 - 0,0
13.08.2018 12:00:00 19,5 17,5 10 6 22 12 WNW 1012,6 - 0,2
13.08.2018 11:00:00 18,5 16,1 10 6 24 13 WNW 1012,4 3,0 1,4
13.08.2018 10:00:00 17,6 16,3 13 7 31 17 W 1012,1 - 0,2
13.08.2018 09:00:00 17,5 16,0 15 8 36 19 W 1011,6 - 0,0
13.08.2018 08:00:00 17,5 16,5 14 8 28 15 W 1011,1 - 0,2
13.08.2018 07:00:00 17,5 16,0 17 9 32 17 W 1010,7 - 0,0
13.08.2018 06:00:00 17,3 16,3 21 11 44 24 W 1010,6 - 0,8
13.08.2018 05:00:00 18,1 15,9 19 10 34 19 W 1010,5 - 0,0
13.08.2018 04:00:00 17,9 16,1 22 12 44 24 W 1010,5 - 0,0
13.08.2018 03:00:00 18,0 16,2 23 12 44 24 W 1010,7 - 0,0
13.08.2018 02:00:00 17,2 15,7 26 14 49 26 WSW 1010,9 - 1,4
13.08.2018 01:00:00 17,6 16,1 16 9 43 23 W 1011,0 - 0,0
13.08.2018 00:00:00 18,4 15,3 24 13 36 19 W 1011,0 - 0,0
12.08.2018 23:00:00 18,1 15,4 18 10 36 20 W 1011,2 - 0,0
12.08.2018 22:00:00 18,2 14,9 22 12 37 20 W 1010,9 - 0,0
12.08.2018 21:00:00 18,4 15,5 24 13 41 22 W 1010,5 - 0,0
12.08.2018 20:00:00 18,6 16,6 16 9 28 15 SW 1010,3 - 0,0
12.08.2018 19:00:00 18,8 16,2 20 11 32 17 WSW 1010,6 - 0,2
12.08.2018 18:00:00 18,5 17,0 11 6 20 11 SW 1010,7 - 0,0
12.08.2018 17:00:00 18,1 16,4 11 6 36 19 W 1011,0 10 1,2
12.08.2018 16:00:00 19,0 18,0 20 11 35 19 W 1011,6 - 1,4
12.08.2018 15:00:00 19,1 18,1 29 15 46 25 SSW 1011,8 - 0,8
12.08.2018 14:00:00 18,9 18,1 29 16 50 27 SW 1012,1 4,0 2,4
12.08.2018 13:00:00 19,9 17,5 23 12 32 18 SSW 1012,5 - 0,0
12.08.2018 12:00:00 19,8 17,0 22 12 30 16 SSW 1012,8 - 0,0
12.08.2018 11:00:00 19,5 16,7 21 11 29 16 S 1012,9 20 0,0
12.08.2018 10:00:00 19,0 15,9 21 12 29 15 SSW 1013,3 - 0,0
12.08.2018 09:00:00 18,9 15,4 22 12 27 15 S 1013,5 - 0,0
12.08.2018 08:00:00 18,4 15,5 17 9 23 13 S 1014,0 25 0,0
12.08.2018 07:00:00 18,3 15,4 15 8 21 11 S 1014,5 - 0,0
12.08.2018 06:00:00 18,2 15,3 16 9 19 10 S 1015,2 - 0,0
12.08.2018 05:00:00 18,2 15,8 16 9 20 11 S 1015,9 - 0,0
12.08.2018 04:00:00 17,8 16,5 16 9 19 10 S 1016,5 - 0,0
12.08.2018 03:00:00 16,9 15,8 10 5 12 7 SSE 1017,1 - 0,0
12.08.2018 02:00:00 16,9 15,6 8 5 11 6 SSE 1018,0 - 0,0
12.08.2018 01:00:00 16,8 15,1 9 5 14 7 SSE 1018,9 - 0,0
12.08.2018 00:00:00 17,7 15,1 6 3 9 5 S 1019,6 - 0,0
11.08.2018 23:00:00 18,3 14,8 6 4 10 5 SW 1020,2 - 0,0
11.08.2018 22:00:00 18,6 14,1 6 3 10 6 SSW 1020,5 - 0,0
11.08.2018 21:00:00 19,2 14,0 8 4 14 8 SSW 1020,9 - 0,0
11.08.2018 20:00:00 20,6 14,5 10 6 14 7 S 1021,3 25 0,0
11.08.2018 19:00:00 21,6 15,0 10 5 16 9 SSW 1021,8 - 0,0
11.08.2018 18:00:00 21,9 15,5 14 8 19 10 SSW 1022,4 - 0,0
11.08.2018 17:00:00 21,9 15,5 12 6 19 10 SSW 1023,0 - 0,0
11.08.2018 16:00:00 22,2 16,5 12 7 26 14 SSE 1023,7 - 0,0
11.08.2018 15:00:00 21,8 16,1 20 11 29 16 SSE 1024,2 - 0,0
11.08.2018 14:00:00 20,8 15,3 19 10 25 14 SSE 1024,6 - 0,0
11.08.2018 13:00:00 21,7 14,8 19 10 26 14 S 1024,7 - 0,0
11.08.2018 12:00:00 20,9 14,8 11 6 21 12 SSE 1024,9 - 0,0
11.08.2018 11:00:00 19,3 14,5 12 7 18 10 SE 1024,9 25 0,0
11.08.2018 10:00:00 19,7 14,9 9 5 16 9 ESE 1025,2 - 0,0
11.08.2018 09:00:00 17,6 14,3 6 3 10 5 ESE 1025,2 - 0,0
11.08.2018 08:00:00 17,1 14,4 5 3 10 5 E 1025,1 20 0,0
11.08.2018 07:00:00 16,7 14,0 4 2 10 6 E 1025,0 - 0,0
11.08.2018 06:00:00 16,6 13,9 7 4 11 6 ESE 1025,0 - 0,0
11.08.2018 05:00:00 16,6 13,5 4 2 6 4 E 1025,3 - 0,0
11.08.2018 04:00:00 16,5 13,6 3 1 6 4 ESE 1025,6 - 0,0
11.08.2018 03:00:00 16,7 13,8 2 1 8 5 SE 1025,7 - 0,0
11.08.2018 02:00:00 16,5 13,0 5 3 14 8 NW 1026,0 - 0,0
11.08.2018 01:00:00 16,7 13,2 8 4 14 8 NW 1026,1 - 0,0
11.08.2018 00:00:00 16,9 13,2 9 5 16 9 NW 1026,0 - 0,0
10.08.2018 23:00:00 17,5 13,6 9 5 19 10 WNW 1026,0 - 0,0
10.08.2018 22:00:00 17,8 13,3 7 4 29 15 WNW 1025,6 - 0,0
10.08.2018 21:00:00 18,3 12,9 16 9 31 17 W 1025,4 - 0,0
10.08.2018 20:00:00 19,1 12,6 20 11 35 19 W 1025,2 20 0,0
10.08.2018 19:00:00 19,6 13,1 20 11 36 19 W 1025,0 - 0,0
10.08.2018 18:00:00 19,0 12,5 22 12 40 22 W 1025,0 - 0,0
10.08.2018 17:00:00 19,7 12,2 22 12 35 19 W 1024,9 20 0,0
10.08.2018 16:00:00 20,5 13,0 22 12 37 20 W 1025,2 - 0,0
10.08.2018 15:00:00 19,8 12,3 25 13 42 23 WSW 1025,2 - 0,0
10.08.2018 14:00:00 19,3 12,1 27 15 41 22 WSW 1025,1 - 0,0
10.08.2018 13:00:00 18,7 12,4 24 13 39 21 WSW 1025,2 - 0,0

tt = temperature
td = dewpoint
ff = wind speed
fx = gusts
dd = wind direction
ppp = reduced air pressure
vv = visibility
rr = precipitation

Next stations